Sacramento / Mc Clellan, CA

4:36 AM PDT on August 21, 2017 (GMT -0700)
McClellan

Weather History for KMCC - June, 2013

Change the Weather History Date:

Thursday, June 27, 2013

  Actual Average (KMHR) Record (KMHR)
Temperature  
Mean Temperature 78 °F -  
Max Temperature 95 °F 87 °F 104 °F (2003)
Min Temperature 62 °F 56 °F 33 °F (2008)
Cooling Degree Days 14    
Growing Degree Days 28 (Base 50)    
Moisture  
Dew Point 55 °F    
Average Humidity 50    
Maximum Humidity 88    
Minimum Humidity 14    
Precipitation  
Precipitation 0.00 in - - ()
Sea Level Pressure  
Sea Level Pressure 30.03 in    
Wind  
Wind Speed 6 mph (SW)    
Max Wind Speed 9 mph    
Max Gust Speed -    
Visibility 10 miles    
Events      
Averages and records for this station are not official NWS values.
T = Trace of Precipitation, MM = Missing Value Source: NWS Daily Summary

Daily Weather History Graph

Daily Weather History Graph

Search for Another Location

Airport or City:

Trip Planner

Search our weather history database for the weather conditions in past years. The results will help you decide how hot, cold, wet, or windy it might be!

Date:

Astronomy

Jun. 27, 2013 Rise Set
Actual Time 5:43 AM PDT 8:34 PM PDT
Civil Twilight 5:11 AM PDT 9:06 PM PDT
Nautical Twilight 4:31 AM PDT 9:46 PM PDT
Astronomical Twilight 3:45 AM PDT 10:32 PM PDT
Moon 11:38 PM PDT (6/27) 10:46 AM PDT (6/27)
Length of Visible Light 15h 54m
Length of Day
14h 51m
Waning Gibbous, 75% of the Moon is Illuminated
Jun 27
Waning Gibbous
Jun 29
Last Quarter
Jul 8
New
Jul 15
First Quarter
Jul 22
Full

Hourly Weather History & Observations

Time (PDT) Temp. Heat Index Dew Point Humidity Pressure Visibility Wind Dir Wind Speed Gust Speed Precip Events Conditions
12:15 AM 71.6 °F - 59.0 °F 64% 30.02 in 10.0 mi SSW 6.9 mph - N/A   Clear
12:35 AM 69.8 °F - 59.0 °F 68% 30.02 in 10.0 mi SSE 6.9 mph - N/A   Clear
12:55 AM 68.0 °F - 59.0 °F 73% 30.02 in 10.0 mi SE 4.6 mph - N/A   Clear
1:15 AM 68.0 °F - 59.0 °F 73% 30.03 in 10.0 mi SSE 6.9 mph - N/A   Clear
1:35 AM 68.0 °F - 59.0 °F 73% 30.03 in 10.0 mi SSE 8.1 mph - N/A   Clear
1:55 AM 66.2 °F - 59.0 °F 78% 30.03 in 10.0 mi SSE 6.9 mph - N/A   Clear
2:15 AM 66.2 °F - 59.0 °F 78% 30.03 in 10.0 mi SSE 8.1 mph - N/A   Clear
2:35 AM 66.2 °F - 59.0 °F 78% 30.03 in 10.0 mi SSE 8.1 mph - N/A   Clear
2:55 AM 66.2 °F - 59.0 °F 78% 30.04 in 10.0 mi SSE 9.2 mph - N/A   Clear
3:15 AM 64.4 °F - 59.0 °F 83% 30.03 in 10.0 mi SSE 6.9 mph - N/A   Clear
3:35 AM 64.4 °F - 59.0 °F 83% 30.03 in 10.0 mi SSE 8.1 mph - N/A   Clear
3:55 AM 66.2 °F - 59.0 °F 78% 30.03 in 10.0 mi South 6.9 mph - N/A   Clear
4:15 AM 64.4 °F - 59.0 °F 83% 30.03 in 10.0 mi SSE 6.9 mph - N/A   Clear
4:35 AM 64.4 °F - 59.0 °F 83% 30.03 in 10.0 mi SSE 6.9 mph - N/A   Clear
4:55 AM 64.4 °F - 59.0 °F 83% 30.03 in 10.0 mi SSE 5.8 mph - N/A   Clear
5:15 AM 64.4 °F - 59.0 °F 83% 30.03 in 10.0 mi SE 5.8 mph - N/A   Clear
5:35 AM 62.6 °F - 59.0 °F 88% 30.03 in 10.0 mi SSE 6.9 mph - N/A   Clear
5:55 AM 62.6 °F - 59.0 °F 88% 30.04 in 10.0 mi SSE 5.8 mph - N/A   Clear
6:15 AM 64.4 °F - 59.0 °F 83% 30.05 in 10.0 mi SSE 5.8 mph - N/A   Clear
6:35 AM 64.4 °F - 59.0 °F 83% 30.05 in 10.0 mi SSE 6.9 mph - N/A   Clear
6:55 AM 66.2 °F - 59.0 °F 78% 30.05 in 10.0 mi South 6.9 mph - N/A   Clear
7:15 AM 66.2 °F - 59.0 °F 78% 30.05 in 10.0 mi SSE 5.8 mph - N/A   Clear
7:35 AM 68.0 °F - 59.0 °F 73% 30.05 in 10.0 mi SSE 4.6 mph - N/A   Clear
7:55 AM 69.8 °F - 59.0 °F 68% 30.05 in 10.0 mi SSE 4.6 mph - N/A   Clear
8:15 AM 71.6 °F - 59.0 °F 64% 30.06 in 10.0 mi SSE 3.5 mph - N/A   Clear
8:35 AM 71.6 °F - 59.0 °F 64% 30.07 in 10.0 mi Calm Calm - N/A   Clear
8:55 AM 73.4 °F - 59.0 °F 61% 30.07 in 10.0 mi South 3.5 mph - N/A   Clear
9:15 AM 75.2 °F - 59.0 °F 57% 30.07 in 10.0 mi WSW 3.5 mph - N/A   Clear
9:35 AM 75.2 °F - 59.0 °F 57% 30.07 in 10.0 mi West 3.5 mph - N/A   Clear
9:55 AM 77.0 °F - 59.0 °F 54% 30.07 in 9.0 mi Calm Calm - N/A   Clear
10:15 AM 78.8 °F - 59.0 °F 51% 30.06 in 10.0 mi WNW 5.8 mph - N/A   Unknown
10:35 AM 80.6 °F 81.1 °F 59.0 °F 48% 30.06 in 10.0 mi Calm Calm - N/A   Clear
10:55 AM 82.4 °F 82.5 °F 59.0 °F 45% 30.07 in 10.0 mi WSW 3.5 mph - N/A   Clear
11:15 AM 82.4 °F 82.5 °F 59.0 °F 45% 30.07 in 10.0 mi Calm Calm - N/A   Clear
11:35 AM 84.2 °F 83.8 °F 59.0 °F 42% 30.07 in 10.0 mi WNW 4.6 mph - N/A   Clear
11:55 AM 84.2 °F 83.8 °F 59.0 °F 42% 30.06 in 10.0 mi WSW 5.8 mph - N/A   Clear
12:15 PM 86.0 °F 85.4 °F 59.0 °F 40% 30.06 in 9.0 mi NW 3.5 mph - N/A   Clear
12:35 PM 86.0 °F 85.4 °F 59.0 °F 40% 30.05 in 10.0 mi West 4.6 mph - N/A   Clear
12:55 PM 87.8 °F 86.5 °F 57.2 °F 35% 30.05 in 10.0 mi NW 5.8 mph - N/A   Clear
1:15 PM 87.8 °F 86.5 °F 57.2 °F 35% 30.05 in 10.0 mi West 4.6 mph - N/A   Clear
1:35 PM 89.6 °F 88.1 °F 57.2 °F 33% 30.05 in 10.0 mi West 5.8 mph - N/A   Clear
1:55 PM 91.4 °F 89.4 °F 55.4 °F 29% 30.04 in 10.0 mi SW 4.6 mph - N/A   Clear
2:15 PM 91.4 °F 89.4 °F 55.4 °F 29% 30.04 in 10.0 mi WSW 5.8 mph - N/A   Clear
2:35 PM 91.4 °F 89.9 °F 57.2 °F 31% 30.03 in 10.0 mi North 6.9 mph - N/A   Clear
2:55 PM 93.2 °F 91.3 °F 55.4 °F 28% 30.03 in 10.0 mi West 5.8 mph - N/A   Clear
3:15 PM 93.2 °F 90.8 °F 53.6 °F 26% 30.02 in 10.0 mi WNW 8.1 mph - N/A   Clear
3:35 PM 93.2 °F - 50.0 °F 23% 30.02 in 10.0 mi West 6.9 mph - N/A   Clear
3:55 PM 93.2 °F - 48.2 °F 21% 30.02 in 10.0 mi NW 8.1 mph - N/A   Clear
4:15 PM 93.2 °F - 44.6 °F 19% 30.01 in 10.0 mi WNW 8.1 mph - N/A   Clear
4:35 PM 93.2 °F - 44.6 °F 19% 30.01 in 10.0 mi West 6.9 mph - N/A   Clear
4:55 PM 93.2 °F - 48.2 °F 21% 30.00 in 10.0 mi NW 9.2 mph - N/A   Clear
5:15 PM 93.2 °F - 46.4 °F 20% 30.00 in 10.0 mi NW 8.1 mph - N/A   Clear
5:35 PM 95.0 °F - 44.6 °F 18% 29.99 in 10.0 mi WNW 6.9 mph - N/A   Clear
5:55 PM 95.0 °F - 42.8 °F 16% 29.98 in 10.0 mi WNW 5.8 mph - N/A   Clear
6:15 PM 95.0 °F - 39.2 °F 14% 29.98 in 10.0 mi NW 6.9 mph - N/A   Clear
6:35 PM 95.0 °F - 41.0 °F 15% 29.98 in 10.0 mi NNW 5.8 mph - N/A   Clear
6:55 PM 95.0 °F - 42.8 °F 16% 29.97 in 10.0 mi NW 4.6 mph - N/A   Clear
7:15 PM 95.0 °F - 44.6 °F 18% 29.97 in 10.0 mi NW 4.6 mph - N/A   Clear
7:35 PM 93.2 °F - 46.4 °F 20% 29.97 in 10.0 mi North 4.6 mph - N/A   Clear
7:55 PM 91.4 °F - 44.6 °F 20% 29.97 in 10.0 mi WNW 3.5 mph - N/A   Clear
8:15 PM 89.6 °F - 50.0 °F 26% 29.97 in 10.0 mi West 4.6 mph - N/A   Clear
8:35 PM 89.6 °F - 50.0 °F 26% 29.97 in 10.0 mi Calm Calm - N/A   Clear
8:55 PM 87.8 °F - 50.0 °F 27% 29.98 in 10.0 mi West 4.6 mph - N/A   Clear
9:15 PM 86.0 °F - 51.8 °F 31% 29.99 in 10.0 mi West 3.5 mph - N/A   Clear
9:35 PM 84.2 °F 83.5 °F 57.2 °F 40% 29.99 in 10.0 mi SW 6.9 mph - N/A   Clear
9:55 PM 82.4 °F 82.5 °F 59.0 °F 45% 30.00 in 10.0 mi SW 4.6 mph - N/A   Clear
10:15 PM 82.4 °F 82.5 °F 59.0 °F 45% 30.00 in 10.0 mi SSW 4.6 mph - N/A   Clear
10:35 PM 78.8 °F - 59.0 °F 51% 30.00 in 10.0 mi SSW 4.6 mph - N/A   Clear
10:55 PM 78.8 °F - 57.2 °F 47% 30.01 in 10.0 mi SSW 4.6 mph - N/A   Clear
11:15 PM 77.0 °F - 57.2 °F 50% 30.01 in 10.0 mi Calm Calm - N/A   Clear
11:35 PM 77.0 °F - 57.2 °F 50% 30.00 in 10.0 mi Calm Calm - N/A   Clear
11:55 PM 77.0 °F - 57.2 °F 50% 30.00 in 10.0 mi South 3.5 mph - N/A   Clear